Weather in Belluno

Italy     46°08′27″N   12°12′44″E
temp.,
°C
wind,
m/s
gust,
m/s
humid.,
%
clouds,
%
prec.,
mm/h
press.,
hPa
HPBL,
m
12 august, fri
fri1223:00+14n228193 0.3 101928
02:00+14nne2283100 0.4 101947
05:00+13nne228289 0.1 101838
08:00+14nne227964 0.3 1017102
11:00+18sse224867 0.4 10171425
14:00+18s225279 1.1 10161009
17:00+17wsw125994 1.0 1016720
20:00+11nw2297100 8.6 1019129
13 august, sat
sat1323:00+9n3596100 11.3 1020121
02:00+10n3392100 11.3 101964
05:00+9n339059 0.3 101858
08:00+12n24834 0.3 1017121
11:00+20se11433 0.0 10161488
14:00+21s324074 0.0 10141778
17:00+21sse124037 0.0 10141977
20:00+16nnw01665 0.0 101411
14 august, sun
sun1423:00+12n227516 0.0 101631
02:00+11nnw22750 0.0 101629
05:00+11n33730 0.0 101555
08:00+14n3467100 0.0 1013121
11:00+20s214647 0.0 1012944
14:00+23s32390 0.0 10111693
17:00+22s324381 0.0 10101509
20:00+16nw11701 0.0 101011
15 august, mon
mon1523:00+13n327448 0.0 101233
02:00+13n32775 0.0 101132
05:00+12n32808 0.0 101138
08:00+16n2272100 0.0 100985
11:00+21s2248100 0.0 1009924
14:00+22s334694 0.1 10081525
17:00+19sw117199 0.6 100950
20:00+15n358898 2.6 1010119
16 august, tue
tue1623:00+13n2292100 0.9 101240
02:00+11n34881 0.9 101256
05:00+11n34870 0.0 101260
08:00+14n23780 0.0 101390
11:00+21s21514 0.0 1012905
14:00+23s32493 0.0 10121570
17:00+22s225768 0.6 10121499
20:00+16nw11894 1.6 101311